Location: Ash Shall?l al Awwal
(24.0167°N, 32.8667°E)
Time: 19:14:44
(UTC+00:00)

Yuri Rocket - Pass Details

Date: 02 March 2021
Orbit: 568 x 1914 km, 28.2° (Epoch: 10 April)

Event Time Altitude Azimuth Distance (km) Brightness Sun altitude
Rises 16:50:52 0° 286° (WNW) 4,780 9.1 -14.3°
Reaches altitude 10° 16:54:28 10° 285° (WNW) 3,599 8.2 -15.1°
Maximum altitude 17:03:25 74° 202° (SSW) 1,174 4.4 -17.1°
Enters shadow 17:07:40 24° 121° (ESE) 1,911 5.0 -18.1°
